Temp
-4 -2 -1 -1 0 1 2 3 3 3 4 4 5 5 5 6 6 6 6 6 6 6 7 7 8 8 8 8 8 9 10 10 10 10 11 11 11 10 10 10 12 12 11 12 12 12 12
-5 -4 -3 -2 -1 0 1 1 3 3 3 3 4 5 5 5 5 5 5 6 6 6 6 7 7 7 7 8 8 9 9 9 10 10 10 10 10 10 10 11 11 11 12 12 11 12 11
-5 -5 -5 -3 -2 -2 -1 -0 1 3 3 2 3 4 4 5 5 5 5 5 5 5 6 6 6 6 7 8 8 9 9 9 10 9 10 10 10 10 10 10 11 11 12 11 11 11 10
-6 -5 -4 -4 -3 -3 -2 -0 -1 1 2 3 3 3 4 4 4 4 4 4 4 5 5 6 6 6 7 8 8 8 8 9 9 9 9 10 10 10 10 10 11 11 10 11 13 11 10
-6 -6 -5 -4 -3 -3 -3 -2 -1 -1 1 2 3 2 3 3 3 3 4 4 4 4 5 5 5 5 6 8 8 7 8 8 8 9 9 9 9 9 10 10 10 10 12 13 13 11 10
-6 -6 -6 -5 -4 -4 -4 -4 -1 -1 -0 1 2 3 2 2 3 3 3 3 3 3 4 4 4 4 6 7 8 8 8 8 8 8 8 8 8 9 9 8 11 13 13 13 12 12 9
-6 -6 -6 -6 -5 -4 -4 -3 -3 -3 -1 -0 1 2 2 2 2 2 3 2 2 2 3 4 4 5 4 7 8 8 8 8 8 8 8 8 7 7 9 9 10 10 10 11 12 12 9
-6 -6 -6 -6 -6 -5 -5 -4 -4 -3 -3 -1 -1 -0 1 2 2 2 2 3 4 2 3 4 4 5 5 6 7 7 7 7 7 8 7 5 6 8 8 8 8 8 9 10 10 10 8
-6 -6 -6 -5 -6 -6 -6 -5 -5 -4 -3 -3 -0 -1 -1 -0 1 2 3 3 2 2 1 2 4 5 4 5 6 6 7 6 7 6 6 6 8 8 7 7 7 8 9 9 10 9 8
-6 -6 -5 -6 -6 -6 -6 -6 -4 -4 -4 -4 -2 -1 -1 -1 -0 0 1 1 -0 -1 -1 1 3 4 2 3 5 4 6 6 4 5 6 6 7 6 7 7 7 8 9 8 8 8 9
-6 -6 -6 -6 -6 -6 -5 -6 -5 -3 -4 -3 -2 -2 -2 -1 -1 -1 1 -2 -3 -2 -1 2 1 3 4 5 5 6 6 4 4 5 5 6 6 5 6 7 7 7 7 6 7 7 8
-5 -5 -5 -6 -6 -5 -5 -6 -6 -5 -4 -5 -3 -3 -3 -3 -1 -1 -1 -2 -2 -3 -3 3 1 1 3 4 4 4 4 3 5 4 4 6 5 5 5 6 6 5 5 6 6 7 8
-5 -5 -5 -5 -5 -5 -5 -6 -6 -6 -6 -5 -5 -4 -3 -2 -2 -1 -1 -2 -3 -4 -2 -0 -1 -0 1 1 2 3 1 2 3 3 4 4 4 4 4 5 4 5 6 8 8 9 9
-5 -4 -4 -5 -5 -5 -5 -6 -6 -7 -7 -6 -6 -5 -4 -2 -2 -2 -1 -2 -4 -3 -2 0 -1 -0 1 2 2 2 1 1 2 4 6 5 5 4 3 5 6 5 6 9 9 10 11
-5 -5 -4 -5 -5 -6 -6 -6 -6 -7 -7 -7 -6 -5 -4 -3 -3 -2 -2 -3 -3 -2 -1 0 -0 0 1 2 3 2 2 2 3 3 5 7 7 7 5 4 5 6 5 7 8 8 7
-5 -5 -5 -5 -6 -6 -6 -6 -7 -7 -8 -7 -6 -5 -4 -3 -3 -3 -2 -2 -2 -1 0 0 0 -0 1 2 2 2 2 3 4 3 4 6 7 5 5 4 4 6 6 5 6 6 7
-5 -4 -5 -5 -6 -6 -7 -7 -7 -7 -8 -8 -8 -6 -4 -3 -3 -2 -3 -3 -2 -1 -0 -0 1 1 1 1 2 2 3 4 3 4 3 4 5 3 5 3 5 4 5 5 6 6 8
-6 -6 -7 -7 -7 -7 -7 -7 -8 -8 -8 -9 -8 -7 -4 -4 -4 -3 -3 -2 -1 -1 -0 0 0 1 3 2 2 1 3 3 3 4 3 4 3 4 4 4 4 5 5 5 6 6 6
-7 -7 -7 -7 -7 -7 -7 -8 -8 -8 -8 -9 -8 -8 -5 -4 -4 -3 -3 -3 0 -2 -2 -1 -1 1 2 2 2 2 3 3 3 3 3 3 3 4 4 3 4 4 4 5 5 6 7
-7 -7 -7 -7 -7 -7 -7 -8 -8 -8 -9 -9 -9 -8 -7 -5 -3 -3 -3 -3 -3 -2 -2 -1 -0 -0 1 1 2 3 3 1 3 3 3 3 4 5 5 5 5 4 5 5 5 5 5
-7 -7 -8 -8 -8 -8 -8 -8 -8 -9 -9 -9 -9 -8 -7 -6 -4 -4 -3 -2 -3 -2 -2 -1 -1 -0 0 1 1 2 1 1 2 2 2 2 3 4 5 6 5 6 5 5 6 6 5
-8 -7 -7 -8 -8 -8 -8 -8 -8 -9 -9 -9 -9 -8 -8 -6 -5 -4 -3 -3 -3 -2 -2 -1 -1 -0 0 1 1 1 1 2 1 1 1 1 2 2 3 4 5 4 5 5 5 6 6
-7 -7 -7 -7 -8 -8 -8 -8 -9 -9 -10 -9 -9 -9 -8 -6 -6 -4 -4 -3 -3 -2 -1 1 1 -1 -0 1 1 1 0 0 1 1 0 1 1 1 2 3 3 2 4 5 5 5 5
-8 -7 -8 -8 -8 -8 -8 -8 -9 -9 -9 -9 -8 -8 -9 -7 -6 -5 -4 -3 -3 -2 -2 1 1 0 0 0 0 -0 -0 -0 -0 -0 -0 0 1 -0 1 1 -0 3 4 4 4 4 5
-8 -8 -8 -8 -8 -8 -8 -9 -9 -10 -10 -10 -8 -9 -8 -7 -8 -5 -4 -3 -3 -2 -2 -1 1 -0 -0 -0 -1 -1 -1 -2 -1 -1 -1 -0 -0 -1 -0 -1 2 3 4 4 4 4 4
-8 -8 -8 -8 -8 -8 -9 -9 -10 -10 -10 -10 -9 -9 -9 -8 -7 -6 -5 -4 -3 -2 -2 -2 -1 -1 -1 -1 -1 -2 -2 -1 -2 -2 -2 -1 -1 -1 -2 -1 0 2 3 3 2 2 3
-9 -7 -8 -8 -8 -8 -9 -10 -10 -10 -10 -10 -9 -9 -8 -8 -7 -6 -5 -5 -4 -4 -3 -3 -2 -1 -1 -1 -2 -2 -1 -1 -1 -1 -2 -2 -1 -1 -1 -2 1 2 3 2 1 3 3
-10 -9 -8 -8 -8 -9 -9 -9 -10 -10 -10 -10 -9 -10 -9 -8 -7 -7 -5 -4 -5 -4 -2 -3 -2 -2 -2 -2 -2 -2 -2 -2 -1 -1 -1 -1 -2 -2 -2 -2 -1 1 1 0 2 1 1
-10 -10 -9 -9 -9 -9 -10 -10 -10 -10 -10 -10 -10 -9 -9 -9 -7 -6 -5 -4 -4 -4 -3 -2 -3 -2 -2 -2 -2 -2 -2 -2 -2 -2 -2 -2 -1 -2 -2 -1 0 1 0 -0 0 -0 0
Height
3012 3016 3021 3023 3027 3034 3041 3048 3057 3063 3069 3075 3081 3087 3094 3098 3103 3108 3113 3118 3123 3126 3130 3133 3137 3139 3142 3145 3147 3147 3148 3150 3153 3155 3156 3158 3160 3162 3164 3165 3165 3165 3167 3164 3164 3164 3165
2997 3003 3007 3011 3014 3018 3029 3034 3042 3052 3058 3064 3071 3077 3084 3091 3096 3101 3106 3111 3116 3120 3123 3127 3131 3134 3137 3140 3139 3143 3145 3148 3149 3151 3153 3155 3156 3158 3160 3160 3162 3160 3161 3161 3161 3162 3162
2984 2989 2994 2998 3002 3006 3013 3021 3029 3039 3047 3055 3062 3068 3075 3082 3089 3094 3100 3104 3110 3113 3117 3121 3125 3127 3128 3135 3135 3138 3141 3144 3146 3148 3149 3152 3154 3156 3156 3158 3157 3158 3159 3159 3159 3160 3159
2976 2976 2982 2986 2990 2993 2999 3008 3015 3026 3034 3043 3051 3059 3066 3073 3080 3087 3093 3097 3103 3106 3110 3114 3119 3121 3119 3125 3129 3133 3136 3139 3142 3144 3146 3148 3150 3151 3153 3154 3156 3156 3157 3157 3155 3156 3155
2967 2968 2969 2973 2978 2982 2987 2997 3001 3013 3020 3029 3040 3049 3057 3065 3072 3079 3085 3090 3095 3098 3103 3108 3112 3114 3115 3117 3123 3128 3131 3134 3137 3139 3141 3144 3147 3148 3150 3152 3154 3154 3152 3153 3153 3152 3154
2956 2958 2959 2961 2966 2971 2978 2983 2989 2997 3007 3019 3030 3037 3046 3056 3063 3070 3076 3081 3086 3091 3095 3099 3102 3110 3109 3112 3116 3121 3125 3128 3131 3134 3136 3139 3141 3143 3146 3149 3147 3147 3147 3148 3150 3152 3148
2945 2946 2948 2950 2952 2957 2964 2972 2979 2987 2993 3006 3018 3028 3035 3045 3052 3059 3063 3067 3076 3079 3078 3087 3094 3102 3102 3105 3113 3114 3119 3122 3125 3128 3131 3134 3136 3135 3140 3143 3145 3145 3145 3144 3146 3148 3143
2933 2934 2936 2940 2942 2945 2951 2960 2968 2977 2985 2996 3006 3013 3023 3032 3038 3046 3053 3055 3067 3078 3075 3080 3085 3092 3094 3101 3105 3107 3113 3116 3118 3120 3127 3130 3126 3132 3135 3138 3139 3140 3140 3140 3141 3142 3139
2921 2922 2924 2928 2932 2936 2941 2947 2956 2966 2975 2983 2996 3004 3012 3019 3026 3029 3038 3052 3065 3067 3072 3071 3077 3084 3090 3095 3097 3100 3107 3110 3112 3116 3119 3123 3126 3125 3130 3131 3132 3134 3134 3136 3137 3137 3134
2910 2909 2912 2916 2921 2926 2930 2937 2944 2954 2964 2974 2986 2992 3001 3012 3015 3022 3027 3045 3055 3058 3069 3066 3063 3064 3075 3084 3086 3093 3099 3107 3109 3112 3117 3118 3121 3121 3124 3127 3127 3128 3131 3131 3133 3133 3130
2900 2899 2900 2904 2909 2915 2920 2926 2932 2940 2953 2962 2972 2979 2988 3001 3011 3011 3024 3034 3043 3054 3059 3051 3050 3058 3068 3068 3082 3082 3089 3097 3100 3104 3111 3109 3111 3113 3116 3120 3123 3123 3125 3128 3128 3128 3127
2887 2887 2888 2891 2896 2902 2909 2916 2922 2929 2940 2950 2961 2972 2981 2987 3003 3010 3017 3023 3034 3046 3038 3037 3037 3040 3052 3056 3070 3079 3081 3089 3095 3101 3101 3104 3106 3108 3110 3115 3117 3119 3121 3124 3124 3125 3119
2871 2871 2873 2877 2883 2889 2898 2905 2912 2920 2929 2941 2950 2962 2975 2981 2992 3001 3009 3013 3021 3020 3027 3027 3027 3033 3041 3046 3060 3068 3069 3074 3079 3089 3091 3096 3097 3101 3104 3110 3111 3114 3119 3119 3118 3115 3109
2855 2853 2856 2862 2869 2877 2886 2894 2903 2911 2921 2931 2941 2952 2963 2974 2980 2995 2999 3001 3002 3004 3014 3018 3022 3030 3035 3044 3051 3058 3063 3064 3069 3076 3085 3088 3090 3093 3094 3099 3103 3104 3110 3107 3105 3104 3101
2842 2840 2842 2847 2856 2865 2875 2884 2893 2903 2913 2923 2935 2942 2953 2965 2974 2980 2987 2984 2983 2996 3008 3014 3018 3022 3030 3036 3041 3050 3049 3054 3058 3064 3073 3076 3079 3086 3087 3092 3099 3100 3100 3107 3105 3105 3107
2829 2828 2830 2835 2842 2854 2864 2875 2884 2895 2905 2916 2921 2932 2942 2956 2965 2967 2971 2972 2981 2992 2998 3006 3008 3014 3019 3025 3033 3038 3044 3042 3050 3056 3067 3071 3075 3077 3082 3086 3088 3092 3099 3102 3102 3101 3099
2816 2813 2817 2823 2831 2844 2856 2866 2877 2888 2899 2910 2917 2922 2933 2945 2958 2952 2949 2962 2974 2984 2992 2997 3002 3008 3013 3016 3021 3025 3026 3033 3036 3046 3058 3066 3069 3073 3075 3074 3079 3084 3087 3091 3095 3093 3088
2810 2806 2808 2816 2826 2838 2850 2860 2870 2881 2892 2901 2909 2910 2926 2935 2937 2933 2938 2950 2964 2977 2984 2991 2996 3003 3006 3010 3015 3019 3020 3028 3026 3038 3043 3055 3062 3064 3066 3071 3074 3077 3080 3084 3084 3085 3083
2811 2809 2812 2816 2825 2835 2845 2854 2864 2874 2883 2893 2898 2905 2917 2924 2918 2926 2936 2943 2955 2971 2975 2982 2986 2994 3000 3004 3011 3013 3018 3023 3024 3031 3036 3047 3049 3058 3062 3067 3068 3068 3073 3076 3080 3081 3073
2813 2814 2813 2819 2825 2832 2841 2849 2858 2868 2878 2887 2895 2896 2904 2908 2908 2922 2926 2932 2944 2961 2969 2976 2982 2991 2996 3000 3003 3008 3013 3014 3019 3028 3034 3041 3042 3043 3045 3051 3057 3061 3064 3068 3072 3071 3070
2811 2811 2813 2817 2822 2829 2836 2844 2852 2862 2871 2879 2883 2883 2893 2895 2900 2908 2920 2928 2936 2947 2961 2969 2976 2981 2985 2992 2998 3001 3006 3010 3014 3022 3029 3034 3036 3039 3043 3047 3050 3053 3057 3060 3060 3059 3066
2803 2802 2806 2810 2816 2823 2830 2838 2846 2855 2865 2869 2874 2878 2891 2894 2901 2905 2907 2918 2926 2934 2946 2956 2968 2975 2981 2983 2985 2991 2999 3003 3007 3014 3020 3026 3031 3034 3038 3042 3045 3048 3048 3051 3055 3057 3057
2795 2789 2790 2797 2807 2816 2824 2832 2840 2849 2855 2859 2868 2877 2884 2883 2892 2895 2898 2907 2916 2930 2936 2947 2959 2971 2975 2980 2987 2993 2993 2997 3002 3007 3013 3020 3024 3029 3031 3037 3041 3041 3036 3045 3047 3048 3051
2784 2773 2778 2790 2798 2810 2819 2827 2834 2842 2849 2856 2862 2872 2877 2880 2884 2890 2894 2904 2910 2919 2930 2938 2952 2960 2975 2974 2980 2985 2989 2992 2998 3003 3010 3014 3020 3028 3028 3030 3033 3021 3032 3037 3039 3040 3043
2788 2783 2783 2788 2797 2805 2814 2822 2829 2837 2844 2851 2859 2866 2872 2876 2885 2886 2894 2897 2908 2919 2928 2933 2942 2955 2962 2969 2973 2976 2982 2987 2989 2998 3003 3010 3017 3018 3020 3024 3024 3022 3024 3026 3029 3028 3033
2791 2788 2789 2793 2795 2800 2810 2817 2824 2831 2839 2847 2854 2865 2871 2877 2878 2879 2886 2892 2898 2902 2916 2927 2941 2949 2949 2957 2955 2958 2963 2976 2985 2989 2993 3003 3008 3011 3013 3017 3015 3009 3019 3021 3023 3018 3025
2793 2789 2789 2791 2795 2801 2807 2812 2820 2827 2834 2841 2849 2861 2866 2872 2876 2877 2882 2889 2896 2905 2907 2915 2922 2931 2930 2941 2949 2954 2961 2970 2974 2981 2988 2992 2997 2999 3002 3009 3007 3009 3008 3013 3016 3015 3014
2798 2789 2785 2789 2794 2799 2805 2810 2816 2823 2830 2837 2847 2855 2863 2865 2871 2875 2882 2886 2894 2897 2901 2905 2915 2918 2922 2934 2941 2940 2953 2961 2969 2970 2971 2976 2985 2989 2994 2999 2995 3000 3003 3003 3006 3003 3004
2802 2794 2788 2789 2792 2797 2803 2808 2814 2821 2829 2836 2843 2852 2857 2862 2865 2869 2869 2874 2881 2896 2903 2902 2908 2911 2917 2924 2932 2939 2948 2952 2957 2964 2967 2971 2968 2976 2980 2981 2987 2991 2994 2993 2994 2997 2996
Wind_Speed
64 59 73 72 74 61 52 56 55 54 52 51 50 47 46 45 44 43 42 40 37 35 33 31 29 27 25 24 20 17 13 18 19 18 17 16 14 13 9 10 13 15 11 15 16 17 15
67 66 66 67 77 77 63 46 54 54 58 52 51 49 47 46 44 44 43 41 39 37 35 33 31 29 28 27 29 23 23 17 15 17 17 16 17 15 14 14 11 17 15 15 15 14 14
43 67 68 73 72 61 75 67 46 60 52 55 53 50 48 47 46 45 44 42 40 39 37 35 33 31 32 28 27 26 25 23 22 21 21 19 18 16 17 13 17 17 16 12 15 12 11
37 44 66 60 72 68 67 70 65 45 57 54 55 51 48 49 47 46 44 43 41 40 39 37 34 33 38 34 29 27 25 24 24 23 22 21 19 19 16 17 15 15 13 14 9 13 13
41 40 48 71 63 72 64 68 79 63 42 57 53 55 49 48 48 46 45 44 43 42 40 38 36 36 37 39 31 28 28 25 24 24 23 21 20 21 18 15 11 14 15 16 13 15 12
40 42 42 48 72 64 65 71 72 72 63 40 58 53 50 52 48 48 47 46 45 43 43 41 41 34 38 27 34 31 29 27 27 26 25 23 22 21 19 17 20 16 17 14 14 12 14
41 44 44 44 46 66 75 69 77 70 72 58 46 53 50 46 51 51 53 53 49 49 53 49 36 40 24 30 33 22 33 30 30 29 26 26 23 23 23 20 21 19 18 20 23 20 19
42 44 49 47 44 46 64 71 70 73 71 67 52 45 40 53 54 57 56 57 54 38 48 50 47 41 38 37 30 28 28 31 35 33 26 20 31 25 17 18 19 18 19 22 23 21 20
37 43 45 49 48 43 46 62 72 69 71 65 65 46 42 29 44 60 61 54 48 49 35 35 44 45 41 35 34 36 31 24 27 31 28 26 17 19 21 20 19 19 21 21 21 16 17
34 40 42 46 48 46 45 48 62 71 67 63 72 73 62 47 28 54 61 53 51 46 22 29 40 47 48 43 41 32 33 29 23 26 24 25 22 17 21 21 17 21 17 19 20 17 17
36 36 43 45 48 47 46 46 50 64 68 68 70 73 70 51 37 52 55 55 50 38 8 22 36 43 44 53 30 42 38 34 27 25 31 22 22 22 24 21 18 17 18 15 15 19 20
40 38 43 48 49 49 47 45 47 52 61 58 69 65 55 63 39 31 53 53 44 26 13 19 31 37 44 47 43 19 40 35 35 23 28 27 14 19 20 18 20 11 12 12 13 16 20
45 41 43 51 51 51 49 47 46 48 51 55 52 52 48 47 41 48 41 54 37 18 17 20 29 30 39 39 42 34 38 44 34 31 35 25 29 19 17 19 17 18 14 9 10 12 13
41 39 42 50 55 52 51 47 46 47 46 52 51 48 59 44 57 50 50 67 17 34 40 12 26 25 39 33 42 41 36 42 46 36 22 30 20 33 24 30 21 29 26 15 12 12 15
36 31 37 41 57 54 52 48 45 48 46 49 49 50 54 42 54 55 51 55 33 31 44 20 24 32 34 39 27 44 46 44 46 45 34 29 27 19 24 28 29 24 35 26 25 15 8
33 34 35 39 49 56 52 48 44 47 44 41 52 51 55 49 41 50 66 56 47 37 20 35 28 31 36 43 31 44 36 45 43 44 38 28 23 24 29 19 27 32 21 24 26 11 18
29 33 37 34 42 53 50 46 44 45 45 42 50 48 55 42 46 51 65 59 52 47 24 44 33 30 32 41 38 44 31 25 42 43 42 30 27 14 25 28 28 30 28 27 25 25 9
17 14 25 32 42 46 44 42 44 43 43 44 44 51 54 59 51 50 69 68 66 49 40 35 32 24 28 32 38 35 34 33 23 39 48 42 20 23 25 21 25 27 29 30 23 25 39
8 6 18 29 37 38 41 40 43 40 45 45 43 56 60 46 59 48 55 60 67 47 41 39 27 34 24 31 31 31 30 27 17 35 41 42 18 22 16 16 19 30 32 29 32 21 29
9 6 16 27 32 37 39 38 42 43 45 45 46 41 59 60 55 70 52 57 59 56 43 53 39 31 30 34 31 29 27 25 22 32 34 40 25 31 22 20 20 32 32 34 33 36 32
18 20 22 28 32 34 36 37 40 43 45 47 50 40 46 46 56 45 57 59 57 47 47 45 37 37 38 34 34 29 28 27 29 31 31 32 22 30 25 19 11 16 29 34 41 43 34
19 29 35 36 35 35 36 37 40 42 45 51 53 36 49 42 35 42 54 65 54 54 58 55 47 41 36 33 41 28 34 35 31 34 31 30 14 19 23 22 20 21 26 30 32 37 41
15 30 41 45 41 38 38 38 41 44 48 53 54 49 38 34 35 41 42 63 64 62 56 53 54 46 38 37 29 37 32 29 29 37 35 27 19 11 16 19 20 26 36 31 33 34 34
24 11 29 36 39 39 38 39 41 44 48 52 52 52 42 40 19 36 38 49 49 56 55 66 55 47 45 36 32 35 43 36 35 37 36 34 25 20 15 9 7 35 29 29 37 40 37
18 9 14 25 32 41 38 39 42 45 46 51 53 49 40 42 29 28 33 43 48 55 50 56 59 53 40 34 31 29 31 26 30 38 43 36 32 19 16 19 22 17 25 25 28 35 31
15 1 9 19 27 42 37 39 41 45 46 50 53 34 52 41 39 16 32 22 36 37 49 54 49 52 43 48 29 15 9 17 15 24 29 28 32 34 16 10 13 38 32 21 18 32 24
24 6 15 18 21 33 33 36 39 42 44 49 53 44 29 34 44 17 29 38 33 43 39 58 52 50 46 51 35 25 23 20 16 23 26 37 37 36 30 19 18 19 19 19 19 20 15
31 18 2 21 26 26 28 33 37 38 42 47 47 43 34 29 31 38 26 32 39 40 47 39 60 48 47 37 34 18 15 31 23 36 39 42 31 27 31 16 12 29 24 25 22 22 26
32 29 11 10 24 27 28 29 34 36 38 42 40 38 37 38 24 37 25 38 36 46 36 38 40 46 38 41 22 26 17 24 25 16 24 26 39 32 26 27 29 23 24 21 32 24 31
Wind_Direction
237 238 239 236 233 231 216 216 221 226 226 226 225 227 229 227 227 227 228 229 231 231 231 231 232 231 233 232 230 226 232 233 236 237 233 230 226 225 225 235 245 248 252 256 262 274 279
237 235 240 241 235 234 230 214 216 222 222 224 224 224 226 228 228 228 229 230 231 233 233 233 234 234 233 232 236 233 236 231 226 230 232 227 225 225 232 237 226 240 249 262 266 274 276
252 236 240 239 238 240 234 233 215 217 220 224 223 223 222 226 227 228 230 230 232 233 235 236 236 237 236 226 232 234 237 236 233 233 235 232 230 222 228 244 246 255 267 271 261 265 251
258 249 233 234 239 242 241 228 235 218 213 215 220 222 222 223 225 227 229 231 232 234 235 237 239 241 242 235 233 232 235 234 233 235 234 233 231 230 229 242 256 262 267 272 226 242 261
255 253 245 235 235 240 239 236 234 230 219 211 217 221 222 224 225 226 227 229 231 233 236 237 239 241 246 239 237 236 235 237 235 231 234 231 232 232 230 239 251 252 257 246 246 274 238
254 250 249 245 235 233 237 241 235 239 228 212 213 213 217 222 221 224 225 226 229 232 234 234 236 238 239 243 240 235 235 234 238 236 236 233 231 237 235 225 233 253 243 250 255 251 264
256 250 247 248 243 236 237 238 237 241 240 226 219 213 211 212 216 221 221 221 221 226 228 230 234 234 234 240 244 234 231 230 231 233 232 234 229 225 229 236 240 260 261 266 267 263 268
264 252 246 244 244 240 234 234 235 236 241 234 221 220 215 204 220 222 224 225 229 229 237 232 229 230 235 239 234 234 226 222 224 226 219 224 231 228 230 227 237 248 261 266 270 264 258
274 253 247 242 242 240 237 233 230 230 236 240 224 216 217 218 217 216 219 225 226 227 231 244 234 237 236 232 232 233 226 209 219 219 211 217 236 231 223 233 236 251 256 264 265 261 272
286 255 246 239 238 239 237 234 232 230 230 234 237 230 229 231 221 228 219 214 217 223 228 232 235 228 223 226 231 220 222 216 212 211 209 227 226 226 219 228 235 253 264 259 253 252 266
288 263 245 235 235 235 237 236 232 230 225 230 237 238 237 228 232 228 227 207 207 207 220 232 224 230 227 224 225 225 224 213 212 209 205 219 218 220 222 232 236 252 251 243 251 252 260
283 269 249 236 232 232 234 235 233 229 227 224 230 235 236 240 225 224 224 205 194 181 224 200 197 204 210 219 213 224 218 210 217 215 215 218 236 222 228 231 222 221 237 242 246 247 252
283 266 251 237 233 230 231 233 231 227 226 214 219 221 216 219 217 220 224 198 173 191 200 201 195 196 199 203 200 205 194 198 199 197 219 225 225 224 210 214 212 207 201 218 233 224 243
285 259 249 234 231 229 225 228 230 225 220 215 219 214 208 210 219 235 216 190 190 210 205 207 192 190 195 193 202 200 198 203 211 210 218 213 220 220 221 217 217 210 206 213 224 246 260
283 262 246 236 227 226 224 224 226 221 215 209 210 209 206 203 215 215 206 187 199 206 208 199 176 186 193 199 200 200 208 213 217 208 210 212 229 231 224 220 212 216 222 226 257 266 275
278 261 246 239 226 222 221 220 220 216 212 213 210 206 205 197 208 218 209 202 209 204 203 198 183 186 189 194 195 199 205 220 220 218 213 227 232 222 211 208 219 218 224 217 226 238 237
292 260 244 235 213 212 216 217 211 213 213 210 214 214 197 188 201 211 202 205 210 207 194 194 195 191 201 192 200 200 209 216 215 211 209 208 207 210 199 209 205 202 216 216 220 224 236
304 266 218 206 205 203 211 212 208 211 208 208 213 218 191 190 205 201 203 207 210 206 192 202 194 199 202 198 198 200 208 208 211 199 200 197 203 203 206 214 211 215 213 208 209 219 232
341 252 211 200 193 199 206 205 208 208 205 207 209 218 206 196 211 210 200 205 219 206 196 201 206 202 199 199 197 205 205 202 189 191 197 190 211 189 192 204 201 215 215 217 219 231 240
251 236 196 192 198 202 201 203 209 207 204 208 208 214 212 199 211 209 205 200 203 211 213 212 209 217 210 210 203 201 200 194 194 195 188 188 198 201 195 208 216 212 214 216 217 225 237
278 234 219 206 202 203 203 205 208 206 203 205 208 218 210 220 210 211 211 208 199 199 208 214 208 212 202 191 195 199 188 181 179 185 188 191 212 202 206 216 215 217 220 219 221 229 228
260 232 228 216 205 204 205 205 204 203 202 207 210 211 209 217 225 218 202 209 202 199 199 203 207 196 192 197 192 182 187 196 180 184 190 189 203 203 219 231 237 234 230 225 229 234 239
289 248 231 220 205 203 204 206 204 202 199 208 213 213 213 225 222 221 209 212 209 208 214 217 209 202 204 212 213 221 207 199 197 189 187 195 202 196 235 240 241 243 231 228 234 237 236
353 327 212 212 200 203 207 206 205 203 208 209 215 215 218 216 215 225 223 213 196 200 203 209 212 216 216 206 205 203 203 199 198 202 207 208 226 224 240 213 215 247 239 238 240 246 245
11 39 189 197 204 203 204 206 205 204 208 212 213 215 213 224 232 215 222 203 206 203 203 212 207 207 206 207 186 175 181 181 202 220 216 213 209 214 207 209 244 259 245 231 231 244 246
8 170 175 195 223 199 200 205 204 205 208 212 212 216 220 222 220 243 220 221 207 194 191 202 201 200 195 202 193 166 165 175 182 179 191 202 214 216 196 213 226 255 244 239 229 250 249
14 352 212 202 195 196 201 201 201 206 209 210 210 203 199 226 230 236 202 219 226 219 205 206 196 200 199 200 199 194 204 206 214 206 202 201 208 213 214 230 238 226 234 225 205 250 249
27 16 223 202 201 202 206 201 200 204 205 208 209 212 219 225 228 223 213 194 222 223 218 202 194 201 188 202 210 200 197 204 206 215 208 208 200 209 215 231 235 227 231 230 249 260 256
29 39 27 184 197 199 198 199 199 199 202 206 210 207 222 227 230 234 221 197 209 213 201 204 200 200 188 193 191 186 168 186 203 197 211 201 210 200 202 224 240 235 240 248 250 239 250